TimeEDT,TemperatureF,Dew PointF,Humidity,Sea Level PressureIn,VisibilityMPH,Wind Direction,Wind SpeedMPH,Gust SpeedMPH,PrecipitationIn,Events,Conditions,WindDirDegrees,DateUTC
12:56 AM,50.0,46.9,89,30.32,10.0,Calm,Calm,-,N/A,,Clear,0,2013-10-09 04:56:00
1:56 AM,48.0,46.0,93,30.33,10.0,Calm,Calm,-,N/A,,Clear,0,2013-10-09 05:56:00
2:56 AM,48.0,46.0,93,30.33,10.0,Calm,Calm,-,N/A,,Clear,0,2013-10-09 06:56:00
3:56 AM,50.0,44.1,80,30.33,10.0,NE,3.5,-,N/A,,Clear,50,2013-10-09 07:56:00
4:56 AM,50.0,45.0,83,30.33,10.0,Calm,Calm,-,N/A,,Clear,0,2013-10-09 08:56:00
5:56 AM,50.0,44.1,80,30.33,10.0,Calm,Calm,-,N/A,,Clear,0,2013-10-09 09:56:00
6:56 AM,46.9,44.1,90,30.37,10.0,Calm,Calm,-,N/A,,Clear,0,2013-10-09 10:56:00
7:56 AM,48.0,44.1,86,30.37,10.0,Calm,Calm,-,N/A,,Clear,0,2013-10-09 11:56:00
8:56 AM,53.1,43.0,69,30.39,10.0,ENE,4.6,-,N/A,,Clear,60,2013-10-09 12:56:00
9:56 AM,55.0,41.0,59,30.39,10.0,ENE,6.9,-,N/A,,Clear,60,2013-10-09 13:56:00
10:56 AM,57.0,41.0,55,30.39,10.0,ENE,6.9,-,N/A,,Mostly Cloudy,70,2013-10-09 14:56:00
11:56 AM,57.9,41.0,53,30.38,10.0,East,10.4,-,N/A,,Clear,90,2013-10-09 15:56:00
12:56 PM,60.1,44.1,55,30.37,10.0,ENE,11.5,-,N/A,,Clear,70,2013-10-09 16:56:00
1:56 PM,61.0,44.1,54,30.35,10.0,East,11.5,17.3,N/A,,Clear,80,2013-10-09 17:56:00
2:56 PM,61.0,43.0,52,30.33,10.0,ENE,6.9,-,N/A,,Clear,70,2013-10-09 18:56:00
3:56 PM,61.0,37.9,42,30.33,10.0,East,10.4,-,N/A,,Clear,100,2013-10-09 19:56:00
4:56 PM,60.1,39.9,47,30.32,10.0,East,9.2,-,N/A,,Clear,80,2013-10-09 20:56:00
5:56 PM,59.0,41.0,51,30.32,10.0,East,8.1,-,N/A,,Clear,80,2013-10-09 21:56:00
6:56 PM,61.0,41.0,48,30.31,10.0,ENE,6.9,-,N/A,,Clear,60,2013-10-09 22:56:00
7:56 PM,57.0,42.1,57,30.31,10.0,NE,6.9,-,N/A,,Clear,50,2013-10-09 23:56:00
8:56 PM,55.9,43.0,62,30.30,10.0,NE,4.6,-,N/A,,Clear,50,2013-10-10 00:56:00
9:56 PM,55.9,43.0,62,30.30,10.0,NNE,3.5,-,N/A,,Clear,20,2013-10-10 01:56:00
10:56 PM,55.9,43.0,62,30.30,10.0,Calm,Calm,-,N/A,,Clear,0,2013-10-10 02:56:00
11:56 PM,54.0,46.0,75,30.30,10.0,Calm,Calm,-,N/A,,Clear,0,2013-10-10 03:56:00